Flag for Switzerland Weather past 2 weeks in Winterthur, Switzerland

Now
73 °F

Passing clouds.


Feels Like: 77 °F
Forecast: 51 / 68 °F
Wind: 9 mph from West

Location: Zurich-Kloten

Current Time: May 29, 2015 at 6:34:59 PM

Latest Report: May 29, 2015 at 5:50 PM


Visibility: N/A

Pressure: 29.83 "Hg

Humidity: 47%

Dew point: 52 °F

Location of WinterthurLocation

Historic Weather in Winterthur — Graph

°F

Winterthur temperature yesterday

Maximum temperature yesterday: 70 °F (at 3:20 PM)
Minimum temperature yesterday: 37 °F (at 5:20 AM)
Average temperature yesterday: 56 °F

Past Weeks' High & Low Weather Summary

 TemperatureHumidityPressure
High75 °F (May 29, 3:20 PM)100% (May 15, 10:50 AM)30.33 "Hg (May 15, 10:50 AM)
Low37 °F (May 28, 5:20 AM)33% (May 29, 12:50 PM)29.77 "Hg (May 18, 5:50 PM)
Average55 °F75%30.07 "Hg
* Reported May 14 5:20 PM — May 29 5:20 PM, Winterthur, Weather by CustomWeather, © 2015

Note: Actual official high and low records may vary slightly from our data, if they occured in-between our weather recording intervals... More about our weather records

Advertising

Winterthur weather history for previous 24 hours

 ConditionsComfort  
Time TempWeatherWind HumidityBarometerVisibility
5:20 PM
Fri, May 29
73 °FPassing clouds.12 mph47%29.86 "HgN/A
4:50 PM73 °FPassing clouds.12 mph47%29.86 "HgN/A
4:20 PM75 °FPassing clouds.7 mph41%29.86 "HgN/A
3:50 PM75 °FPassing clouds.9 mph34%29.86 "HgN/A
3:20 PM75 °FPassing clouds.13 mph34%29.86 "HgN/A
2:50 PM73 °FPassing clouds.14 mph38%29.86 "HgN/A
2:20 PM73 °FPassing clouds.10 mph38%29.89 "HgN/A
1:50 PM72 °FScattered clouds.8 mph38%29.89 "HgN/A
1:20 PM72 °FScattered clouds.5 mph36%29.92 "HgN/A
12:50 PM72 °FBroken clouds.6 mph33%29.92 "HgN/A
12:20 PM70 °FBroken clouds.6 mph40%29.92 "HgN/A
11:50 AM68 °FSunny.3 mph43%29.95 "Hg10 mi
11:20 AM66 °FPassing clouds.5 mph52%29.95 "HgN/A
10:50 AM66 °FPassing clouds.5 mph56%29.95 "HgN/A
10:20 AM63 °FPassing clouds.5 mph59%29.95 "HgN/A
9:50 AM63 °FScattered clouds.3 mph68%29.98 "HgN/A
9:20 AM61 °FSprinkles. Broken clouds.1 mph68%29.98 "HgN/A
8:50 AM57 °FSprinkles. Broken clouds.3 mph82%29.95 "HgN/A
8:20 AM59 °FBroken clouds.No wind72%29.98 "HgN/A
7:50 AM55 °FScattered clouds.2 mph82%29.98 "HgN/A
7:20 AM52 °FScattered clouds.1 mph94%29.98 "HgN/A
6:50 AM50 °FScattered clouds.2 mph88%29.98 "HgN/A
6:20 AM46 °FClear.No wind100%29.98 "Hg10 mi
5:20 AM48 °FClear.1 mph87%29.98 "Hg10 mi
4:50 AM48 °FClear.1 mph94%29.98 "Hg10 mi
4:20 AM50 °FClear.1 mph82%29.98 "Hg10 mi
3:50 AM50 °FClear.5 mph88%30.01 "Hg10 mi
3:20 AM50 °FClear.No wind88%30.01 "Hg10 mi
2:50 AM52 °FClear.3 mph77%30.01 "Hg10 mi
1:50 AM52 °FClear.3 mph82%30.04 "Hg10 mi
1:20 AM54 °FClear.3 mph77%30.04 "Hg10 mi
11:50 PM
Thu, May 28
55 °FClear.3 mph67%30.04 "Hg10 mi
11:20 PM55 °FClear.1 mph72%30.04 "Hg10 mi
10:50 PM57 °FClear.2 mph67%30.04 "Hg10 mi
10:20 PM59 °FClear.1 mph59%30.04 "Hg10 mi
9:50 PM61 °FSunny.1 mph55%30.04 "Hg10 mi
9:20 PM61 °FPartly sunny.5 mph55%30.01 "HgN/A
8:50 PM61 °FPartly sunny.6 mph59%30.01 "HgN/A
8:20 PM63 °FPartly sunny.6 mph56%30.01 "HgN/A
7:50 PM66 °FPartly sunny.7 mph49%30.01 "HgN/A
7:20 PM68 °FScattered clouds.8 mph46%30.01 "HgN/A
6:50 PM68 °FScattered clouds.9 mph49%30.01 "HgN/A
6:20 PM70 °FScattered clouds.7 mph43%30.01 "HgN/A
Weather by CustomWeather, © 2015

See weather overviewHow to use our weather pages